Location: B�rgermoos
(47.6500°N, 9.0667°E)
Time: 01:56:20
(UTC+00:00)

USA 234 - Pass Details

Date: 18 September 2020
Orbit: 1102 x 1106 km, 123.0° (Epoch: 16 October)

Event Time Altitude Azimuth Distance (km) Brightness Sun altitude
Exits shadow 20:19:21 11° 54° (NE) 2,886 5.3 -27.5°
Maximum altitude 20:25:43 86° 327° (NNW) 1,111 3.2 -28.3°
Drops below altitude 10° 20:32:16 10° 239° (WSW) 2,959 5.7 -29.2°
Sets 20:34:45 0° 239° (WSW) 3,916 6.4 -29.5°
